Regional Weather Roundup
Issued by NWS

Home | Current Version | Previous Version | Graphics & Text | Print | Product List | Glossary On
Versions: 1 2 3 4 5 6 7 8 9 10 11 12 13 14 15 16 17 18 19 20 21 22 23 24 25 26 27 28 29 30 31 32 33 34 35 36 37 38 39 40 41 42 43 44 45 46 47 48 49 50
099
ASUS43 KBIS 301302
RWRND

NORTH DAKOTA REGIONAL WEATHER ROUNDUP
NATIONAL WEATHER SERVICE BISMARCK ND
800 AM CDT SUN APR 30 2017

NOTE: "FAIR" INDICATES FEW OR NO CLOUDS BELOW 12,000 FEET WITH NO
SIGNIFICANT WEATHER AND/OR OBSTRUCTIONS TO VISIBILITY.


NDZ001>003-009>011-017-301400-
NORTHWEST NORTH DAKOTA

CITY           SKY/WX    TMP DP  RH WIND       PRES   REMARKS
WILLISTON      FAIR      42  28  57 S6        30.03S
MINOT          FAIR      46  23  40 S7        30.04F
MINOT AFB      SUNNY     45  25  45 SW10      30.03F
$$

NDZ018>021-031>035-040>046-301400-
SOUTHWEST NORTH DAKOTA

CITY           SKY/WX    TMP DP  RH WIND       PRES   REMARKS
BISMARCK       FAIR      35  28  75 E6        30.10F
DICKINSON      FAIR      38  22  52 SW5       30.04F
GARRISON         N/A     39  27  62 CALM      30.07S
HETTINGER ARPT SUNNY     29  23  78 NW3       30.07F
$$

NDZ004>008-012>016-024-026-027-054-301400-
NORTHEAST NORTH DAKOTA

CITY           SKY/WX    TMP DP  RH WIND       PRES   REMARKS
GRAND FORKS    PTSUNNY   44  33  65 SE7       30.14F
GRND FRKS AFB  PTSUNNY   43  31  62 S6        30.14F
DEVILS LAKE    FAIR      44  29  55 CALM      30.12F
$$

NDZ022-023-025-028>030-036>039-047>053-301400-
SOUTHEAST NORTH DAKOTA

CITY           SKY/WX    TMP DP  RH WIND       PRES   REMARKS
FARGO          SUNNY     43  26  51 E9        30.12F
JAMESTOWN      FAIR      41  32  70 N5        30.11S
$$





USA.gov is the U.S. government's official web portal to all federal, state and local government web resources and services.